Location: Unspecified
(0.0000°N, 0.0000°E)
Time: 00:21:56
(UTC+00:00)

Hubble Space Telescope - Pass Details

Date: 28 September 2023
Orbit: 521 x 525 km, 28.5° (Epoch: 04 October)

Event Time Altitude Azimuth Distance (km) Brightness Sun altitude
Rises 18:09:24 0° 221° (SW) 2,638 5.0 -4.7°
Reaches altitude 10° 18:11:57 10° 207° (SSW) 1,748 3.8 -5.3°
Maximum altitude 18:15:18 25° 151° (SSE) 1,077 2.1 -6.2°
Drops below altitude 10° 18:18:39 10° 95° (E) 1,743 2.7 -7.0°
Enters shadow 18:18:58 - 92° (E) 1,849 2.8 -7.1°
